GW6473 Weather Reports


Display with metric or nautical units.
time (UTC)temp
F
wind
direction
speed
MPH
gust
MPH
rain 1hr
in
rain 24hr
in
rain mn
in
humidity
%
barometer
mb
20260510220159 70 155 9.0 15.0 0.00 0.00 0.00 28 1025.0
20260510215657 70 100 8.0 15.0 0.00 0.00 0.00 28 1025.1
20260510215155 70 129 10.0 13.0 0.00 0.00 0.00 27 1024.8
20260510214652 69 112 10.0 14.0 0.00 0.00 0.00 27 1025.0
20260510214148 71 136 8.0 10.0 0.00 0.00 0.00 26 1025.1
20260510213645 70 157 5.0 17.0 0.00 0.00 0.00 27 1025.0
20260510213142 70 150 7.0 10.0 0.00 0.00 0.00 26 1025.2
20260510212638 70 84 7.0 11.0 0.00 0.00 0.00 27 1025.2
20260510212136 71 212 6.0 13.0 0.00 0.00 0.00 27 1025.3
20260510211632 70 149 3.0 10.0 0.00 0.00 0.00 27 1025.2
20260510211127 70 170 4.0 9.0 0.00 0.00 0.00 26 1025.1
20260510210623 69 75 5.0 11.0 0.00 0.00 0.00 28 1025.0
20260510210119 68 136 9.0 14.0 0.00 0.00 0.00 29 1025.1
20260510205618 67 97 12.0 18.0 0.00 0.00 0.00 30 1025.0
20260510205114 66 166 9.0 15.0 0.00 0.00 0.00 32 1025.2
20260510204610 65 52 11.0 20.0 0.00 0.00 0.00 33 1025.3
20260510204107 65 57 6.0 14.0 0.00 0.00 0.00 35 1025.6
20260510203604 65 90 5.0 10.0 0.00 0.00 0.00 33 1025.7
20260510203101 64 74 4.0 7.0 0.00 0.00 0.00 35 1026.0
20260510202600 64 73 3.0 8.0 0.00 0.00 0.00 35 1026.2
20260510202056 64 62 6.0 8.0 0.00 0.00 0.00 38 1026.5
20260510201554 65 170 7.0 10.0 0.00 0.00 0.00 40 1026.3
20260510201050 66 65 5.0 9.0 0.00 0.00 0.00 36 1025.8
20260510200546 66 161 6.0 8.0 0.00 0.00 0.00 35 1026.0
20260510200044 66 111 4.0 9.0 0.00 0.00 0.00 28 1025.8
20260510195542 67 153 2.0 3.0 0.00 0.00 0.00 23 1025.8
20260510195038 69 256 3.0 3.0 0.00 0.00 0.00 23 1025.6
20260510194533 69 237 2.0 5.0 0.00 0.00 0.00 24 1025.5
20260510194029 68 218 3.0 3.0 0.00 0.00 0.00 24 1025.3
20260510193524 69 202 3.0 3.0 0.00 0.00 0.00 24 1025.2
20260510193020 69 239 5.0 8.0 0.00 0.00 0.00 24 1025.0
20260510192515 71 226 8.0 10.0 0.00 0.00 0.00 23 1025.1
20260510192011 73 125 6.0 9.0 0.00 0.00 0.00 22 1025.2
20260510191508 73 82 4.0 8.0 0.00 0.00 0.00 21 1025.2
20260510191005 73 196 3.0 7.0 0.00 0.00 0.00 22 1025.5
20260510190502 72 276 6.0 8.0 0.00 0.00 0.00 22 1025.5
20260510185959 71 113 4.0 7.0 0.00 0.00 0.00 23 1025.5
20260510185456 71 231 3.0 5.0 0.00 0.00 0.00 23 1025.5
20260510184953 71 136 5.0 9.0 0.00 0.00 0.00 24 1025.7
20260510184451 73 224 7.0 11.0 0.00 0.00 0.00 24 1025.5
20260510183950 70 103 6.0 8.0 0.00 0.00 0.00 25 1025.3
20260510183447 69 209 8.0 10.0 0.00 0.00 0.00 26 1025.5
20260510182947 70 148 2.0 8.0 0.00 0.00 0.00 24 1025.7
20260510182443 67 229 3.0 7.0 0.00 0.00 0.00 25 1025.6
20260510181939 69 272 8.0 13.0 0.00 0.00 0.00 25 1025.7
20260510181438 69 159 5.0 8.0 0.00 0.00 0.00 25 1025.7
20260510180933 70 204 8.0 10.0 0.00 0.00 0.00 24 1025.6
20260510180430 68 118 5.0 6.0 0.00 0.00 0.00 27 1025.8
20260510175927 69 215 5.0 9.0 0.00 0.00 0.00 27 1025.8
20260510175423 69 165 5.0 10.0 0.00 0.00 0.00 27 1026.0
20260510174919 68 177 4.0 8.0 0.00 0.00 0.00 28 1025.8
20260510174417 69 191 7.0 10.0 0.00 0.00 0.00 27 1026.1
20260510173913 68 207 4.0 6.0 0.00 0.00 0.00 27 1026.2
20260510173409 71 215 7.0 14.0 0.00 0.00 0.00 26 1026.0
20260510172906 69 174 4.0 6.0 0.00 0.00 0.00 26 1026.0
20260510172402 68 213 3.0 11.0 0.00 0.00 0.00 28 1026.1
20260510171858 68 237 3.0 8.0 0.00 0.00 0.00 28 1025.8
20260510171355 68 281 5.0 11.0 0.00 0.00 0.00 29 1026.0
20260510170852 68 126 5.0 7.0 0.00 0.00 0.00 29 1026.0
20260510170349 67 263 4.0 10.0 0.00 0.00 0.00 30 1026.0
20260510165844 68 204 7.0 11.0 0.00 0.00 0.00 28 1026.1
20260510165341 67 194 6.0 8.0 0.00 0.00 0.00 29 1025.7
20260510164838 66 295 4.0 8.0 0.00 0.00 0.00 30 1025.7
20260510164336 66 237 7.0 10.0 0.00 0.00 0.00 30 1025.8
20260510163835 66 216 7.0 11.0 0.00 0.00 0.00 32 1026.0
20260510163332 67 217 7.0 11.0 0.00 0.00 0.00 30 1025.8
20260510162831 67 229 5.0 13.0 0.00 0.00 0.00 30 1025.6
20260510162329 67 232 4.0 7.0 0.00 0.00 0.00 29 1025.7
20260510161825 66 269 1.0 5.0 0.00 0.00 0.00 29 1026.0
20260510161320 67 224 4.0 9.0 0.00 0.00 0.00 28 1025.6
20260510160819 67 92 4.0 5.0 0.00 0.00 0.00 28 1025.6
20260510160315 65 164 6.0 9.0 0.00 0.00 0.00 29 1025.7
20260510155814 66 120 3.0 7.0 0.00 0.00 0.00 29 1025.7
20260510155311 65 263 2.0 6.0 0.00 0.00 0.00 30 1025.8
20260510154807 64 175 3.0 10.0 0.00 0.00 0.00 30 1025.7
20260510154303 65 202 5.0 8.0 0.00 0.00 0.00 29 1025.7
20260510153758 66 162 6.0 10.0 0.00 0.00 0.00 29 1025.5
20260510153254 65 113 5.0 7.0 0.00 0.00 0.00 30 1025.7
20260510152751 65 163 7.0 9.0 0.00 0.00 0.00 30 1025.5
20260510152248 64 219 5.0 7.0 0.00 0.00 0.00 30 1025.3
20260510151744 66 192 5.0 8.0 0.00 0.00 0.00 29 1025.3
20260510151243 65 221 3.0 7.0 0.00 0.00 0.00 29 1025.3
20260510150738 65 161 5.0 8.0 0.00 0.00 0.00 29 1025.2
20260510150234 65 77 4.0 7.0 0.00 0.00 0.00 30 1025.3
20260510145730 65 118 5.0 9.0 0.00 0.00 0.00 29 1025.2
20260510145227 64 208 4.0 5.0 0.00 0.00 0.00 30 1025.2
20260510144722 64 181 4.0 8.0 0.00 0.00 0.00 30 1025.3
20260510144220 64 178 5.0 8.0 0.00 0.00 0.00 31 1025.3
20260510143714 64 140 4.0 6.0 0.00 0.00 0.00 30 1025.3
20260510143211 63 203 3.0 3.0 0.00 0.00 0.00 31 1025.3
20260510142707 64 150 2.0 5.0 0.00 0.00 0.00 31 1025.1
20260510142204 63 280 1.0 3.0 0.00 0.00 0.00 31 1025.2
20260510141701 62 103 1.0 5.0 0.00 0.00 0.00 31 1025.1
20260510141200 62 235 0.0 2.0 0.00 0.00 0.00 28 1024.8
20260510140655 62 105 3.0 5.0 0.00 0.00 0.00 28 1024.7
20260510140155 61 83 1.0 3.0 0.00 0.00 0.00 30 1024.8
20260510135650 60 10 2.0 3.0 0.00 0.00 0.00 30 1024.7
20260510135147 60 57 3.0 5.0 0.00 0.00 0.00 30 1024.5
20260510134644 59 34 4.0 6.0 0.00 0.00 0.00 32 1024.7
20260510134141 58 359 2.0 5.0 0.00 0.00 0.00 33 1024.6
20260510133637 57 57 3.0 5.0 0.00 0.00 0.00 35 1024.7
20260510133132 55 24 1.0 3.0 0.00 0.00 0.00 38 1024.6
20260510132629 55 75 1.0 2.0 0.00 0.00 0.00 39 1024.6
20260510132127 56 81 2.0 3.0 0.00 0.00 0.00 39 1024.6
20260510131624 55 119 3.0 5.0 0.00 0.00 0.00 39 1024.5
20260510131121 55 143 3.0 3.0 0.00 0.00 0.00 38 1024.4
20260510130618 55 79 2.0 5.0 0.00 0.00 0.00 38 1024.2
20260510130115 55 130 3.0 6.0 0.00 0.00 0.00 38 1023.9
20260510125611 55 100 2.0 3.0 0.00 0.00 0.00 38 1024.0
20260510125108 55 135 1.0 5.0 0.00 0.00 0.00 37 1023.6
20260510124604 55 131 3.0 3.0 0.00 0.00 0.00 37 1023.5
20260510124101 55 164 2.0 3.0 0.00 0.00 0.00 37 1023.7
20260510123556 54 134 2.0 3.0 0.00 0.00 0.00 37 1023.7
20260510123053 54 140 3.0 5.0 0.00 0.00 0.00 37 1023.5
20260510122549 55 141 1.0 3.0 0.00 0.00 0.00 36 1023.6
20260510122045 55 199 1.0 2.0 0.00 0.00 0.00 36 1023.6
20260510121542 56 128 1.0 5.0 0.00 0.00 0.00 35 1023.6
20260510121039 56 129 3.0 3.0 0.00 0.00 0.00 36 1023.6
20260510120537 56 168 3.0 3.0 0.00 0.00 0.00 35 1023.4
20260510120032 57 129 2.0 3.0 0.00 0.00 0.00 34 1023.4
20260510115529 57 158 4.0 6.0 0.00 0.00 0.00 34 1023.6
20260510115026 58 128 3.0 3.0 0.00 0.00 0.00 33 1023.4
20260510114522 58 98 3.0 6.0 0.00 0.00 0.00 33 1023.5
20260510114018 58 87 4.0 5.0 0.00 0.00 0.00 32 1023.4
20260510113514 59 76 3.0 5.0 0.00 0.00 0.00 32 1023.5
20260510113012 58 116 3.0 7.0 0.00 0.00 0.00 32 1023.1
20260510112508 57 133 3.0 5.0 0.00 0.00 0.00 32 1023.1
20260510112004 57 113 3.0 3.0 0.00 0.00 0.00 32 1023.2
20260510111501 58 200 1.0 2.0 0.00 0.00 0.00 31 1023.1
20260510110957 58 228 1.0 1.0 0.00 0.00 0.00 30 1023.0
20260510110453 58 243 1.0 5.0 0.00 0.00 0.00 30 1023.0
20260510105949 58 110 3.0 5.0 0.00 0.00 0.00 30 1022.8
20260510105445 58 119 2.0 5.0 0.00 0.00 0.00 30 1022.8
20260510104940 59 101 3.0 6.0 0.00 0.00 0.00 30 1022.8
20260510104437 58 131 5.0 8.0 0.00 0.00 0.00 30 1022.6
20260510103933 57 76 4.0 7.0 0.00 0.00 0.00 31 1022.8
20260510103431 57 176 5.0 7.0 0.00 0.00 0.00 32 1022.5
20260510102926 57 182 4.0 6.0 0.00 0.00 0.00 33 1022.9
20260510102422 57 225 3.0 5.0 0.00 0.00 0.00 32 1023.0
20260510101919 57 102 2.0 3.0 0.00 0.00 0.00 31 1022.5
20260510101417 56 123 2.0 3.0 0.00 0.00 0.00 32 1022.5
20260510100914 56 167 1.0 2.0 0.00 0.00 0.00 32 1022.6
20260510100406 56 211 1.0 2.0 0.00 0.00 0.00 32 1022.3
20260510095902 57 218 1.0 2.0 0.00 0.00 0.00 31 1022.4
20260510095357 57 230 0.0 2.0 0.00 0.00 0.00 31 1022.5
20260510094856 58 211 2.0 2.0 0.00 0.00 0.00 30 1022.6
20260510094351 58 213 1.0 1.0 0.00 0.00 0.00 30 1022.3
20260510093848 58 210 1.0 1.0 0.00 0.00 0.00 30 1022.3
20260510093344 59 96 0.0 1.0 0.00 0.00 0.00 29 1022.1
20260510092840 59 0 1.0 1.0 0.00 0.00 0.00 29 1022.0
20260510092337 59 289 0.0 0.0 0.00 0.00 0.00 29 1022.0
20260510091832 59 272 0.0 0.0 0.00 0.00 0.00 29 1021.6
20260510091329 59 18 1.0 1.0 0.00 0.00 0.00 29 1021.6
20260510090826 59 331 1.0 1.0 0.00 0.00 0.00 29 1021.5
20260510090322 60 283 1.0 1.0 0.00 0.00 0.00 28 1021.5
20260510085818 59 34 3.0 3.0 0.00 0.00 0.00 28 1021.3
20260510085313 59 30 2.0 3.0 0.00 0.00 0.00 29 1021.3
20260510084809 59 49 2.0 5.0 0.00 0.00 0.00 29 1021.3
20260510084306 59 37 4.0 5.0 0.00 0.00 0.00 29 1021.3
20260510083803 58 28 1.0 5.0 0.00 0.00 0.00 29 1021.3
20260510083300 58 20 2.0 3.0 0.00 0.00 0.00 29 1021.1
20260510082755 58 318 3.0 3.0 0.00 0.00 0.00 29 1021.1
20260510082252 58 353 3.0 5.0 0.00 0.00 0.00 29 1021.1
20260510081751 58 23 3.0 5.0 0.00 0.00 0.00 29 1021.3
20260510081247 58 45 3.0 5.0 0.00 0.00 0.00 30 1021.1
20260510080743 58 354 3.0 5.0 0.00 0.00 0.00 30 1021.1
20260510080238 59 310 2.0 3.0 0.00 0.00 0.00 29 1021.3
20260510075735 59 21 3.0 3.0 0.00 0.00 0.00 29 1021.4
20260510075233 59 9 3.0 3.0 0.00 0.00 0.00 29 1021.4
20260510074730 59 49 1.0 5.0 0.00 0.00 0.00 29 1021.1
20260510074226 60 351 2.0 6.0 0.00 0.00 0.00 29 1021.3
20260510073722 59 350 3.0 3.0 0.00 0.00 0.00 29 1021.1
20260510073219 59 65 4.0 6.0 0.00 0.00 0.00 29 1021.1
20260510072714 59 52 2.0 5.0 0.00 0.00 0.00 29 1021.3
20260510072211 59 28 1.0 5.0 0.00 0.00 0.00 29 1021.1
20260510071708 58 22 3.0 5.0 0.00 0.00 0.00 30 1021.3
20260510071205 58 347 2.0 5.0 0.00 0.00 0.00 30 1021.3
20260510070702 58 343 3.0 5.0 0.00 0.00 0.00 30 1021.4
20260510070200 59 278 2.0 3.0 0.00 0.00 0.00 29 1021.4
20260510065654 59 227 2.0 3.0 0.00 0.00 0.00 29 1020.9
20260510065151 60 24 3.0 7.0 0.00 0.00 0.00 28 1021.0
20260510064647 60 22 3.0 5.0 0.00 0.00 0.00 28 1021.3
20260510064145 61 323 5.0 7.0 0.00 0.00 0.00 28 1020.9
20260510063642 61 24 3.0 5.0 0.00 0.00 0.00 28 1021.1
20260510063138 61 17 3.0 6.0 0.00 0.00 0.00 27 1021.3
20260510062634 61 65 2.0 5.0 0.00 0.00 0.00 27 1021.1
20260510062130 61 61 3.0 6.0 0.00 0.00 0.00 27 1021.0
20260510061626 61 343 4.0 7.0 0.00 0.00 0.00 27 1021.3
20260510061124 61 19 3.0 6.0 0.00 0.00 0.00 27 1021.1
20260510060620 61 347 5.0 7.0 0.00 0.00 0.00 26 1021.0
20260510060116 61 358 4.0 7.0 0.00 0.00 0.00 26 1020.8
20260510055612 61 6 4.0 9.0 0.00 0.00 0.00 26 1020.9
20260510055110 61 329 1.0 3.0 0.00 0.00 0.00 26 1020.9
20260510054606 62 63 3.0 5.0 0.00 0.00 0.00 25 1020.9
20260510054101 62 359 3.0 6.0 0.00 0.00 0.00 25 1020.9
20260510053600 63 1 3.0 7.0 0.00 0.00 0.00 25 1020.8
20260510053058 63 331 5.0 8.0 0.00 0.00 0.00 24 1020.9
20260510052553 63 5 6.0 10.0 0.00 0.00 0.00 24 1020.9
20260510052050 63 12 6.0 10.0 0.00 0.00 0.00 24 1020.9
20260510051545 63 324 5.0 9.0 0.00 0.00 0.00 24 1020.7
20260510051042 64 78 5.0 9.0 0.00 0.00 0.00 23 1021.0
20260510050539 64 334 4.0 10.0 0.00 0.00 0.00 23 1020.9
20260510050037 64 14 6.0 8.0 0.00 0.00 0.00 22 1021.0
20260510045534 65 10 3.0 7.0 0.00 0.00 0.00 22 1021.0
20260510045029 65 336 7.0 9.0 0.00 0.00 0.00 22 1020.8
20260510044526 65 346 3.0 9.0 0.00 0.00 0.00 21 1020.9
20260510044024 65 333 5.0 8.0 0.00 0.00 0.00 21 1020.9
20260510043520 65 2 6.0 9.0 0.00 0.00 0.00 21 1020.8
20260510043015 64 37 6.0 8.0 0.00 0.00 0.00 21 1021.0
20260510042509 64 31 3.0 6.0 0.00 0.00 0.00 21 1020.8
20260510042004 64 348 3.0 3.0 0.00 0.00 0.00 20 1020.7
20260510041502 64 326 2.0 5.0 0.00 0.00 0.00 20 1020.7
20260510040959 64 36 3.0 3.0 0.00 0.00 0.00 20 1020.7
20260510040455 64 310 1.0 3.0 0.00 0.00 0.00 20 1020.5
20260510035951 64 40 3.0 5.0 0.00 0.00 0.00 20 1020.7
20260510035448 64 329 3.0 3.0 0.00 0.00 0.00 20 1020.4
20260510034947 65 295 3.0 3.0 0.00 0.00 0.00 19 1020.7
20260510034447 65 308 2.0 3.0 0.00 0.00 0.00 19 1020.5
20260510033942 65 309 2.0 3.0 0.00 0.00 0.00 19 1020.7
20260510033438 66 28 4.0 5.0 0.00 0.00 0.00 18 1020.7
20260510032936 66 342 3.0 6.0 0.00 0.00 0.00 18 1020.4
20260510032434 67 341 4.0 7.0 0.00 0.00 0.00 18 1020.2
20260510031933 67 2 5.0 7.0 0.00 0.00 0.00 17 1020.2
20260510031429 66 2 4.0 8.0 0.00 0.00 0.00 17 1019.8
20260510030925 66 325 3.0 6.0 0.00 0.00 0.00 17 1020.0
20260510030421 66 357 4.0 5.0 0.00 0.00 0.00 17 1019.9
20260510025919 67 336 3.0 5.0 0.00 0.00 0.00 16 1019.9
20260510025416 67 289 2.0 3.0 0.00 0.00 0.00 16 1019.7
20260510024913 68 317 2.0 3.0 0.00 0.00 0.00 16 1019.7
20260510024409 68 308 1.0 2.0 0.00 0.00 0.00 16 1019.3
20260510023905 68 321 1.0 2.0 0.00 0.00 0.00 16 1019.3
20260510023402 69 319 3.0 3.0 0.00 0.00 0.00 16 1019.2
20260510022859 69 318 3.0 7.0 0.00 0.00 0.00 16 1019.3
20260510022358 69 293 2.0 3.0 0.00 0.00 0.00 16 1019.2
20260510021857 69 280 3.0 6.0 0.00 0.00 0.00 16 1019.1
20260510021355 70 307 2.0 2.0 0.00 0.00 0.00 15 1018.9
20260510020852 71 351 3.0 5.0 0.00 0.00 0.00 15 1019.1
20260510020352 71 325 3.0 6.0 0.00 0.00 0.00 15 1019.1
20260510015847 71 356 5.0 8.0 0.00 0.00 0.00 14 1019.1
20260510015344 72 267 5.0 7.0 0.00 0.00 0.00 14 1018.9
20260510014839 72 277 7.0 9.0 0.00 0.00 0.00 14 1018.9
20260510014337 73 305 7.0 9.0 0.00 0.00 0.00 14 1018.7
20260510013833 73 4 5.0 11.0 0.00 0.00 0.00 14 1019.1
20260510013329 74 295 6.0 11.0 0.00 0.00 0.00 13 1018.8
20260510012824 74 324 9.0 16.0 0.00 0.00 0.00 13 1018.4
20260510012323 74 272 5.0 14.0 0.00 0.00 0.00 13 1018.4
20260510011818 75 304 8.0 13.0 0.00 0.00 0.00 13 1018.4
20260510011314 75 15 6.0 11.0 0.00 0.00 0.00 13 1018.4
20260510010811 75 258 11.0 21.0 0.00 0.00 0.00 13 1018.2
20260510010308 75 358 9.0 18.0 0.00 0.00 0.00 13 1018.4
20260510005805 76 58 6.0 15.0 0.00 0.00 0.00 12 1018.3
20260510005300 75 312 7.0 13.0 0.00 0.00 0.00 13 1018.4
20260510004759 75 253 9.0 16.0 0.00 0.00 0.00 13 1018.2
20260510004256 76 338 5.0 8.0 0.00 0.00 0.00 13 1018.3
20260510003753 76 268 3.0 7.0 0.00 0.00 0.00 13 1018.3
20260510003250 75 342 9.0 13.0 0.00 0.00 0.00 13 1018.1
20260510002748 76 342 10.0 16.0 0.00 0.00 0.00 13 1018.3
20260510002246 75 318 7.0 14.0 0.00 0.00 0.00 13 1018.2
20260510001743 76 341 6.0 15.0 0.00 0.00 0.00 13 1018.2
20260510001241 77 353 5.0 13.0 0.00 0.00 0.00 13 1018.2
20260510000737 76 276 3.0 14.0 0.00 0.00 0.00 13 1018.3
20260510000234 77 283 11.0 13.0 0.00 0.00 0.00 12 1018.2
20260509235731 76 343 7.0 14.0 0.00 0.00 0.00 12 1018.2
20260509235227 76 271 7.0 10.0 0.00 0.00 0.00 12 1018.2
20260509234723 77 302 9.0 13.0 0.00 0.00 0.00 12 1018.2
20260509234221 76 334 5.0 11.0 0.00 0.00 0.00 13 1018.2
20260509233719 76 339 6.0 14.0 0.00 0.00 0.00 13 1017.9
20260509233216 76 299 4.0 11.0 0.00 0.00 0.00 12 1018.2
20260509232712 77 235 6.0 14.0 0.00 0.00 0.00 12 1017.9
20260509232209 79 256 5.0 14.0 0.00 0.00 0.00 12 1018.2
20260509231706 78 234 7.0 9.0 0.00 0.00 0.00 12 1018.2
20260509231203 79 287 9.0 15.0 0.00 0.00 0.00 12 1018.2
20260509230700 78 322 11.0 17.0 0.00 0.00 0.00 12 1018.2
20260509230157 78 333 6.0 15.0 0.00 0.00 0.00 12 1017.9
20260509225653 77 319 4.0 7.0 0.00 0.00 0.00 12 1017.9
20260509225148 78 274 4.0 11.0 0.00 0.00 0.00 12 1017.9
20260509224644 78 316 9.0 14.0 0.00 0.00 0.00 12 1018.2
20260509224141 78 186 12.0 18.0 0.00 0.00 0.00 12 1018.2
20260509223638 76 291 9.0 17.0 0.00 0.00 0.00 12 1018.3
20260509223135 78 309 7.0 11.0 0.00 0.00 0.00 12 1018.2
20260509222632 76 260 3.0 13.0 0.00 0.00 0.00 12 1018.2
20260509222127 78 239 4.0 11.0 0.00 0.00 0.00 12 1018.4
20260509221624 77 288 8.0 10.0 0.00 0.00 0.00 12 1018.1
20260509221120 75 279 3.0 7.0 0.00 0.00 0.00 13 1018.4
20260509220616 76 314 5.0 13.0 0.00 0.00 0.00 13 1018.4